Regional Weather Roundup
Issued by NWS State College, PA

Home | Current Version | Previous Version | Graphics & Text | Print | Product List | Glossary Off
Versions: 1 2 3 4 5 6 7 8 9 10 11 12 13 14 15 16 17 18 19 20 21 22 23 24 25 26 27 28 29 30 31 32 33 34 35 36 37 38 39 40 41 42 43 44 45 46 47 48 49 50

681
ASUS41 KCTP 230703
RWRCTP

REGIONAL WEATHER ROUNDUP
NATIONAL WEATHER SERVICE STATE COLLEGE PA
200 AM EST MON JAN 23 2017

Note: "fair" indicates few or no clouds below 12,000 feet with no
significant weather and/or obstructions to visibility.

* = STATION THAT DOES NOT REPORT PRECIPITATION /E.G. RAIN...SNOW...ETC/
    THUNDER OR FOG.

PAZ002>004-007>009-013>016-020>023-029>032-230800-
WESTERN PENNSYLVANIA

CITY           SKY/WX    TMP DP  RH WIND       PRES   REMARKS
ERIE           FOG       39  37  92 NE12      29.62S VSB 3/4
MEADVILLE      CLOUDY    50  43  77 E10       29.58S
FRANKLIN*        N/A     48  43  81 E10       29.59S
NEW CASTLE     CLOUDY    50  46  86 E8G18     29.56S
BEAVER COUNTY  NOT AVBL
BUTLER*        CLOUDY    48  43  81 E12G17    29.57F
PITTSBURGH INT CLOUDY    49  47  93 E13       29.52F
PITTSBURGH     CLOUDY    50  44  80 NE7       29.52F
INDIANA*       CLOUDY    48  45  87 E12G17    29.60F
LATROBE        CLOUDY    50  45  81 NE9       29.55S
WASHINGTON CO* MOCLDY    48  45  87 NE9       29.50S
$$

PAZ004>006-010>012-017>019-024>028-033>037-041-042-045-046-049>053-230800-
CENTRAL PENNSYLVANIA

CITY           SKY/WX    TMP DP  RH WIND       PRES   REMARKS
BRADFORD       CLOUDY    48  46  93 E9        29.63F
DUBOIS         CLOUDY    47  42  83 E15G21    29.60F
CLEARFIELD     CLOUDY    46  45  96 E10       29.64S
JOHNSTOWN      CLOUDY    44  44 100 E17G29    29.55S FOG
ALTOONA        CLOUDY    47  45  93 E14G20    29.61F
STATE COLLEGE  CLOUDY    45  45 100 E6        29.66R FOG
WILLIAMSPORT   CLOUDY    49  44  83 E8        29.70S
SELINSGROVE    CLOUDY    48  44  86 NE5       29.71S
FT INDIANTOWN  CLOUDY    46  46 100 E20G26    29.70S
CAPITAL CITY   CLOUDY    47  42  83 E20G31    29.68F
HARRISBURG     CLOUDY    47  44  90 E12       29.69S
YORK           CLOUDY    46  45  96 E13       29.66F
$$

PAZ038>040-043-044-047-048-054-055-060>062-067>071-230800-
EASTERN PENNSYLVANIA

CITY           SKY/WX    TMP DP  RH WIND       PRES   REMARKS
SCRANTON       CLOUDY    45  41  86 VRB6      29.75R
MOUNT POCONO   FOG       37  36  96 E15G26    29.74R VSB 1/4
ALLENTOWN      CLOUDY    46  39  76 E20G26    29.75F
QUAKERTOWN*    CLOUDY    43  41  93 E9G28     29.75F
READING        CLOUDY    46  43  89 E21G31    29.71S
LANCASTER      CLOUDY    46  43  89 E17       29.70S
COATESVILLE    CLOUDY    43  43 100 E23G35    29.70S
POTTSTOWN      CLOUDY    44  40  85 NE8G17    29.74S
BLUE BELL      CLOUDY    43  41  93 NE17G23   29.72S
DOYLESTOWN     CLOUDY    45  41  86 NE8G16    29.74F
WILLOW GROVE   NOT AVBL
NORTH PHILA    CLOUDY    46  42  86 E28G37    29.74F
PHILADELPHIA   CLOUDY    45  42  89 E15G30    29.73R
$$




USA.gov is the U.S. government's official web portal to all federal, state and local government web resources and services.